User: anonymous
Location: Saint Peter Port
(49.4500°N, 2.5330°W)
Time: 16:57:20
(UTC+01:00)
Language:

Cosmos 2242 Rocket - Orbit

View from above orbital plane
View from above orbital plane
View from above satellite
View from above satellite

Ground track
Ground track

The orbit data is extracted from the following two-line orbital elements,

1 22627U 93024B   14205.46662858  .00000179  00000-0  21702-4 0  3801
2 22627 082.5237 003.0340 0023933 187.8521 230.0576 14.77633149145772
Epoch (UTC): 24 July 2014 11:11:56
Eccentricity: 0.0023933
inclination: 82.5237°
perigee height: 620 km
apogee height: 653 km
right ascension of ascending node: 3.0340°
argument of perigee: 187.8521°
revolutions per day: 14.77633149
mean anomaly at epoch: 230.0576°
orbit number at epoch: 14577

The dashed part of the orbit path shows where the satellite is in the earth's shadow,  

DLR